"Time","Temp","Dewpoint","Humidity","Pressure","Direction","Speed","Gust","Precip","PrecipRate"
"00:04:59","73.7","70.9","91","29.96","153","0","0","0.00","0.00"
"00:09:56","73.5","70.7","91","29.96","153","0","0","0.00","0.00"
"00:14:56","73.3","70.6","91.4","29.96","153","0","0","0.00","0.00"
"00:19:58","73.3","70.8","92","29.96","153","0","0","0.00","0.00"
"00:24:57","73.2","70.7","92","29.96","153","0","0","0.00","0.00"
"00:29:56","73.2","70.7","92","29.96","153","0","0","0.00","0.00"
"00:34:59","73.2","70.7","92","29.96","153","0","0","0.00","0.00"
"00:39:59","73.1","70.6","92","29.96","153","0","0","0.00","0.00"
"00:44:58","73","70.5","92","29.96","153","0","0","0.00","0.00"
"00:49:57","73","70.5","92","29.96","153","0","0","0.00","0.00"
"00:54:56","73","70.5","92","29.96","153","0","0","0.00","0.00"
"00:59:59","73","70.5","92","29.96","153","0","0","0.00","0.00"
"01:04:58","73","70.5","92","29.96","153","0","0","0.00","0.00"
"01:09:57","72.9","70.8","93","29.96","153","0","0","0.00","0.00"
"01:14:56","72.8","70.7","93","29.96","153","0","0","0.00","0.00"
"01:19:59","72.8","70.7","93","29.96","153","0","0","0.00","0.00"
"01:24:58","72.7","70.6","93","29.96","153","0","0","0.00","0.00"
"01:29:57","72.6","70.5","93","29.96","153","0","0","0.00","0.00"
"01:34:58","72.6","70.7","93.7","29.95","153","0","0","0.00","0.00"
"01:39:59","72.6","70.6","93.2","29.95","153","0","0","0.00","0.00"
"01:44:58","72.6","70.8","93.9","29.95","153","0","0","0.00","0.00"
"01:49:57","72.6","70.5","93","29.95","153","0","0","0.00","0.00"
"01:54:56","72.6","70.5","93","29.95","153","0","0","0.00","0.00"
"01:59:59","72.4","70.4","93.2","29.95","153","0","0","0.00","0.00"
"02:04:58","72.3","70.5","94","29.95","153","0","0","0.00","0.00"
"02:09:57","72.2","70.4","94","29.95","153","0","0","0.00","0.00"
"02:14:57","72.1","70.3","94","29.95","153","0","0","0.00","0.00"
"02:19:56","72","70.2","94","29.95","153","0","0","0.00","0.00"
"02:24:59","72","70.2","94","29.95","153","0","0","0.00","0.00"
"02:29:58","71.9","70.1","94","29.95","153","0","0","0.00","0.00"
"02:34:56","71.9","70.1","94","29.94","153","0","0","0.00","0.00"
"02:39:56","71.9","70.1","94","29.94","153","0","0","0.00","0.00"
"02:44:59","71.7","69.9","94","29.94","153","0","0","0.00","0.00"
"02:49:58","71.6","70","94.8","29.94","153","0","0","0.00","0.00"
"02:54:57","71.5","70","95","29.94","153","0","0","0.00","0.00"
"02:59:56","71.3","69.8","95","29.94","153","0","0","0.00","0.00"
"03:04:56","71.2","69.7","95","29.94","153","0","0","0.00","0.00"
"03:09:59","71.1","69.6","95","29.94","153","0","0","0.00","0.00"
"03:14:58","71","69.5","95","29.94","153","0","0","0.00","0.00"
"03:19:57","71","69.5","95","29.94","153","0","0","0.00","0.00"
"03:24:56","70.9","69.5","95.2","29.94","153","0","0","0.00","0.00"
"03:29:56","70.9","69.6","95.8","29.94","153","0","0","0.00","0.00"
"03:34:57","70.9","69.7","96","29.94","153","0","0","0.00","0.00"
"03:39:58","70.9","69.7","96","29.94","153","0","0","0.00","0.00"
"03:44:57","70.8","69.6","96","29.94","153","0","0","0.00","0.00"
"03:49:56","70.7","69.5","96","29.93","153","0","0","0.00","0.00"
"03:54:57","70.6","69.4","96","29.93","153","0","0","0.00","0.00"
"03:59:56","70.6","69.4","96","29.93","153","0.7","2.4","0.00","0.00"
"04:04:56","70.4","69.2","96","29.93","153","0.3","2.3","0.00","0.00"
"04:09:59","70.4","69.2","96","29.93","153","0.2","1.2","0.00","0.00"
"04:14:58","70.4","69.2","96","29.93","153","0.2","1.2","0.00","0.00"
"04:19:58","70.4","69.2","96","29.93","153","0","0","0.00","0.00"
"04:24:59","70.4","69.2","96","29.93","153","0","0","0.00","0.00"
"04:29:56","70.3","69.1","96","29.93","153","0.1","2.4","0.00","0.00"
"04:34:59","70.4","69.3","96.4","29.93","152","0.3","2.4","0.00","0.00"
"04:39:59","70.3","69.1","96","29.93","153","0.1","1.2","0.00","0.00"
"04:44:58","70.1","68.9","96","29.93","153","0","0","0.00","0.00"
"04:49:57","70","68.8","96","29.93","153","0","0","0.00","0.00"
"04:54:57","70","68.8","96","29.93","153","0","0","0.00","0.00"
"04:59:56","70","68.8","96","29.93","153","0","0","0.00","0.00"
"05:04:59","70","68.8","96","29.93","153","0.7","2.4","0.00","0.00"
"05:09:58","70","68.8","96.1","29.93","153","0.3","2.4","0.00","0.00"
"05:14:57","70","69.1","97","29.93","153","0","0","0.00","0.00"
"05:19:57","70","69.1","97","29.93","152","0.5","3.6","0.00","0.00"
"05:24:56","70.1","69.2","97","29.93","152","0.2","3.5","0.00","0.00"
"05:29:59","70","69.1","97","29.93","152","0","0","0.00","0.00"
"05:34:57","69.9","69","97","29.92","152","0","1.2","0.00","0.00"
"05:39:57","69.8","68.9","97","29.92","153","0","0","0.00","0.00"
"05:44:56","69.8","68.9","97","29.92","152","0","0","0.00","0.00"
"05:49:56","69.8","68.9","97","29.92","153","0","0","0.00","0.00"
"05:54:59","69.7","68.8","97","29.92","152","0","0","0.00","0.00"
"05:59:58","69.6","68.7","97","29.93","98","0","0","0.00","0.00"
"06:04:57","69.6","68.7","97","29.93","96","0","1.2","0.00","0.00"
"06:09:57","69.6","68.7","97","29.93","286","0","0","0.00","0.00"
"06:14:56","69.6","68.7","97","29.93","286","0","0","0.00","0.00"
"06:19:59","69.7","68.8","97","29.93","286","0","0","0.00","0.00"
"06:24:58","69.8","68.9","97","29.93","286","0","0","0.00","0.00"
"06:29:57","69.8","68.9","97","29.93","286","0","0","0.00","0.00"
"06:34:56","69.9","69","97","29.93","286","0","0","0.00","0.00"
"06:39:59","70","69.1","97","29.93","286","0","0","0.00","0.00"
"06:44:58","70.1","69.2","97","29.93","286","0","0","0.00","0.00"
"06:49:57","70.2","69.3","97","29.93","286","0.3","2.4","0.00","0.00"
"06:54:59","70.4","69.5","97","29.93","286","0.5","2.4","0.00","0.00"
"06:59:58","70.5","69.6","97","29.93","286","0.5","2.3","0.00","0.00"
"07:04:56","70.7","69.8","97","29.93","286","0.8","4.8","0.00","0.00"
"07:09:59","70.9","70","97","29.93","286","1.3","4.6","0.00","0.00"
"07:14:58","71.2","70.3","97","29.93","286","0","1.2","0.00","0.00"
"07:19:56","71.4","70.5","97","29.93","286","0","0","0.00","0.00"
"07:24:59","71.8","70.9","97","29.93","286","0","0","0.00","0.00"
"07:29:56","72.2","71.2","96.6","29.94","286","0.8","3.6","0.00","0.00"
"07:34:56","72.7","71.5","96","29.94","286","0.6","3.5","0.00","0.00"
"07:39:57","73.3","71.9","95.2","29.94","307","1","4.8","0.00","0.00"
"07:44:55","74","72.3","94.5","29.94","320","0.6","2.4","0.00","0.00"
"07:49:58","74.6","72.5","93.5","29.94","320","0.4","2.4","0.00","0.00"
"07:54:57","75.1","72.8","92.5","29.94","320","0","0","0.00","0.00"
"07:59:57","75.6","73.1","92","29.94","320","0","0","0.00","0.00"
"08:04:56","76","73.2","91","29.94","320","0","0","0.00","0.00"
"08:09:58","76.5","73.7","90.9","29.94","320","0","0","0.00","0.00"
"08:14:58","77","73.8","90.1","29.95","320","0","0","0.00","0.00"
"08:19:57","77.3","73.8","89.1","29.95","320","0","0","0.00","0.00"
"08:24:59","77.6","74","88.7","29.95","320","0","0","0.00","0.00"
"08:29:58","78","74.1","87.7","29.95","320","0","0","0.00","0.00"
"08:34:56","78.4","74.5","88","29.95","320","0.2","3.6","0.00","0.00"
"08:39:56","79","74.8","87.3","29.95","320","0","0","0.00","0.00"
"08:44:56","79.5","75.1","86.4","29.95","320","0.6","2.4","0.00","0.00"
"08:49:56","79.8","75.1","85.5","29.94","320","0.5","2.4","0.00","0.00"
"08:54:59","80.1","75.4","85.7","29.94","320","0.2","1.2","0.00","0.00"
"08:59:59","80.5","75.4","84.5","29.95","320","0.1","1.2","0.00","0.00"
"09:04:56","80.8","75.8","84.6","29.95","320","0.3","4.8","0.00","0.00"
"09:09:59","81.1","75.4","83.1","29.95","320","1.2","4.6","0.00","0.00"
"09:14:56","81.3","75.9","84","29.95","297","1.6","3.6","0.00","0.00"
"09:19:55","81.7","76.1","83.2","29.95","282","1.2","3.5","0.00","0.00"
"09:24:57","81.9","76","82.3","29.95","282","0.7","2.4","0.00","0.00"
"09:29:57","82.2","76.4","82.5","29.95","282","0.4","2.4","0.00","0.00"
"09:34:56","82.8","76.7","81.8","29.95","282","0.4","2.4","0.00","0.00"
"09:39:56","83.4","76.4","79.5","29.95","282","0.6","2.4","0.00","0.00"
"09:44:59","83.5","76","78.2","29.95","282","1.3","3.6","0.00","0.00"
"09:49:58","83.5","75.4","76.7","29.94","338","3.4","6","0.00","0.00"
"09:54:58","83.6","75","75.5","29.94","329","0.7","3.6","0.00","0.00"
"09:59:57","83.8","75.1","75.3","29.94","329","1","3.6","0.00","0.00"
"10:04:58","84","75.3","75.2","29.94","327","1","3.6","0.00","0.00"
"10:09:57","84.2","75.3","74.7","29.94","300","0.7","3.6","0.00","0.00"
"10:14:57","84.7","75.9","75","29.94","275","1","3.6","0.00","0.00"
"10:19:57","85.4","76.3","74.4","29.94","273","1.4","3.6","0.00","0.00"
"10:24:57","86","75.7","71.5","29.94","265","0.2","1.2","0.00","0.00"
"10:29:56","86.5","75.8","70.5","29.94","257","0.8","3.6","0.00","0.00"
"10:34:59","87","75.4","68.7","29.94","257","1.2","3.6","0.00","0.00"
"10:39:59","87","75.1","67.8","29.94","257","1.3","2.4","0.00","0.00"
"10:44:58","87","74.8","67.3","29.94","246","1.6","4.8","0.00","0.00"
"10:49:58","86.8","74.6","67.2","29.94","246","0.3","2.4","0.00","0.00"
"10:54:58","86.7","74.6","67.4","29.94","245","0.9","2.4","0.00","0.00"
"10:59:58","86.6","74.1","66.4","29.94","228","2.3","4.8","0.00","0.00"
"11:04:59","86.6","74.5","67.4","29.93","221","2","3.6","0.00","0.00"
"11:09:58","86.7","74","66.1","29.93","221","1","3.6","0.00","0.00"
"11:14:59","87.2","74.1","65.2","29.93","261","1.9","4.8","0.00","0.00"
"11:19:59","87.6","74.4","65.1","29.93","264","1.2","3.6","0.00","0.00"
"11:24:58","88.2","74.9","64.8","29.93","262","1.1","3.6","0.00","0.00"
"11:29:58","88.4","74.8","64.3","29.93","259","1.9","6","0.00","0.00"
"11:34:57","88.1","74.7","64.7","29.93","234","1.8","4.8","0.00","0.00"
"11:39:58","87.8","74.8","65.5","29.93","207","1.3","4.8","0.00","0.00"
"11:44:58","87.4","73.9","64.4","29.93","150","0.4","4.6","0.00","0.00"
"11:49:58","88.1","75.3","65.9","29.92","151","1","4.8","0.00","0.00"
"11:54:57","88.6","74.6","63.3","29.92","154","0.6","4.8","0.00","0.00"
"11:59:57","88.8","74.5","63","29.92","165","2.2","8.4","0.00","0.00"
"12:04:57","88.6","74.7","63.5","29.92","166","2.4","5.8","0.00","0.00"
"12:09:57","88.8","73.8","61.4","29.92","215","2.6","7.2","0.00","0.00"
"12:14:59","88.9","73.5","60.6","29.92","232","3","4.8","0.00","0.00"
"12:19:56","88.3","73.4","61.7","29.91","205","2.2","6","0.00","0.00"
"12:24:55","88.2","74.2","63.3","29.91","197","1.2","3.5","0.00","0.00"
"12:29:59","88.4","73.3","61.1","29.91","198","1.9","6","0.00","0.00"
"12:34:59","88.1","73.4","61.9","29.91","199","2","4.6","0.00","0.00"
"12:39:59","87.8","73.7","63.1","29.91","195","1.1","3.6","0.00","0.00"
"12:44:58","86.6","73.6","65.3","29.92","116","3.5","15","0.00","0.00"
"12:49:58","84.2","72.4","67.8","29.92","112","2.2","6","0.00","0.00"
"12:54:58","82.4","72","70.8","29.92","120","2.5","6","0.00","0.00"
"12:59:57","81.7","72.1","72.7","29.92","126","1.7","5.8","0.00","0.00"
"13:04:58","81.4","72.1","73.5","29.92","110","3.1","8.4","0.00","0.00"
"13:09:58","81.2","72.1","74.1","29.92","96","2.8","8.1","0.00","0.00"
"13:14:58","81","72.4","75.3","29.92","116","2","6","0.00","0.00"
"13:19:58","80.9","72.4","75.6","29.92","126","3.4","8.4","0.00","0.00"
"13:24:57","81.1","73.3","77.2","29.92","126","2","5.8","0.00","0.00"
"13:29:57","82.6","74.4","76.4","29.92","133","2.7","10.8","0.00","0.00"
"13:34:56","82.4","73.4","74.2","29.91","124","2.4","6","0.00","0.00"
"13:39:58","83.3","74.2","74.2","29.91","127","1.2","4.8","0.00","0.00"
"13:44:57","83.9","73.2","70.4","29.91","128","2.5","6","0.00","0.00"
"13:49:59","83.8","72.6","69.1","29.90","126","2","5.8","0.00","0.00"
"13:54:58","84.6","73.4","69.2","29.90","105","1.6","4.8","0.00","0.00"
"13:59:58","86.3","74","67","29.90","135","2.3","6","0.00","0.00"
"14:04:58","86.5","73.7","65.8","29.89","89","2.3","4.8","0.00","0.00"
"14:09:58","86.3","72.6","63.8","29.89","127","3","9.6","0.00","0.00"
"14:14:58","86.4","73","64.5","29.89","105","1.5","3.6","0.00","0.00"
"14:19:58","86.4","72.3","62.9","29.89","125","2.5","10.8","0.00","0.00"
"14:24:58","86.8","72.7","63.1","29.89","129","2.3","6","0.00","0.00"
"14:29:57","87.1","72.4","61.9","29.89","131","3.3","7.2","0.00","0.00"
"14:34:59","88.1","74.3","63.9","29.89","130","0.9","4.8","0.00","0.00"
"14:39:56","88.9","75.2","64","29.89","129","1.6","3.6","0.00","0.00"
"14:44:56","88.6","74.6","63.5","29.89","32","1.7","3.6","0.00","0.00"
"14:49:56","88.1","74.3","63.8","29.88","112","2.7","7.2","0.00","0.00"
"14:54:59","87.7","73.9","63.8","29.88","137","2","3.6","0.00","0.00"
"14:59:59","87.9","74.5","64.7","29.88","104","1.3","3.6","0.00","0.00"
"15:04:59","88.5","74.9","64.3","29.88","98","2.2","7.2","0.00","0.00"
"15:09:59","88.9","75.2","64.1","29.88","92","1.8","4.8","0.00","0.00"
"15:14:59","89","75.3","64","29.88","16","1.6","4.8","0.00","0.00"
"15:19:59","89.4","74.5","61.7","29.87","79","2.4","8.4","0.00","0.00"
"15:24:58","88.9","74.9","63.5","29.87","128","3.6","9.6","0.00","0.00"
"15:29:58","88.2","75.4","66.1","29.87","114","1.8","4.6","0.00","0.00"
"15:34:58","88.3","74.4","63.7","29.87","59","1.7","3.6","0.00","0.00"
"15:39:58","88.4","74.1","62.8","29.87","95","2.2","7.2","0.00","0.00"
"15:44:57","88.8","74.4","62.6","29.87","138","2.5","6.9","0.00","0.00"
"15:49:57","88.6","75","64.3","29.86","136","1.8","3.6","0.00","0.00"
"15:54:57","88.5","74.9","64.2","29.86","152","2.3","6","0.00","0.00"
"15:59:56","88.8","75.2","64.2","29.86","127","2","7.2","0.00","0.00"
"16:04:56","88.9","75.6","64.9","29.86","128","2","8.4","0.00","0.00"
"16:09:56","89.3","76.2","65.4","29.86","129","1.8","8.4","0.00","0.00"
"16:14:56","89.2","76.5","66.2","29.86","134","3.4","8.4","0.00","0.00"
"16:19:56","89","76.3","66.3","29.86","129","2.6","6","0.00","0.00"
"16:24:56","88.7","75.9","66.1","29.86","107","2.1","4.8","0.00","0.00"
"16:29:56","89","76.1","65.9","29.86","160","3.4","7.2","0.00","0.00"
"16:34:59","89.6","75.8","64","29.85","163","3.7","7.2","0.00","0.00"
"16:39:59","89.7","75.9","64.1","29.85","151","2.4","6","0.00","0.00"
"16:44:59","89.3","75.1","63.1","29.85","150","1.4","4.8","0.00","0.00"
"16:49:59","88.8","75.1","64.3","29.85","141","1.5","6","0.00","0.00"
"16:54:58","88.8","74.9","63.6","29.85","140","3.5","7.2","0.00","0.00"
"16:59:58","88.9","74.7","63.2","29.85","134","3","7.2","0.00","0.00"
"17:04:59","88.9","74.7","63","29.84","129","1.8","7.2","0.00","0.00"
"17:09:58","89.4","74.8","62.2","29.84","167","2.8","7.2","0.00","0.00"
"17:14:59","89.7","74.7","61.5","29.84","182","1.9","6.9","0.00","0.00"
"17:19:59","89.7","74.6","61.3","29.84","194","2.4","6","0.00","0.00"
"17:24:58","89.9","75.3","62.4","29.84","180","3.1","6","0.00","0.00"
"17:29:58","90.1","75","61.3","29.84","187","3.2","6","0.00","0.00"
"17:34:57","90.1","74.7","60.8","29.84","191","2.4","6","0.00","0.00"
"17:39:58","89.8","74.4","60.6","29.84","131","1.6","4.6","0.00","0.00"
"17:44:57","89.5","74.6","61.7","29.84","165","2.4","7.2","0.00","0.00"
"17:49:58","89.4","74","60.7","29.84","145","2.5","4.8","0.00","0.00"
"17:54:57","89.1","73.6","60.4","29.84","137","1.9","4.8","0.00","0.00"
"17:59:57","88.9","74","61.7","29.84","137","1.2","3.6","0.00","0.00"
"18:04:58","88.8","74.4","62.5","29.84","131","1.7","7.2","0.00","0.00"
"18:09:58","88.5","74.5","63.3","29.84","130","1.3","3.6","0.00","0.00"
"18:14:58","88.4","74.4","63.5","29.84","130","1.2","3.6","0.00","0.00"
"18:19:58","88.1","74.6","64.4","29.84","172","1.9","4.8","0.00","0.00"
"18:24:58","87.9","74.4","64.5","29.84","185","0.8","3.6","0.00","0.00"
"18:29:58","87.9","74.7","65","29.84","159","2.3","4.8","0.00","0.00"
"18:34:57","87.7","75","66","29.84","159","2","4.8","0.00","0.00"
"18:39:57","87.6","74.7","65.6","29.84","130","2.8","8.4","0.00","0.00"
"18:44:57","87.4","74.5","65.8","29.84","153","3.2","7.2","0.00","0.00"
"18:49:57","87.2","74","65","29.83","157","2.9","8.4","0.00","0.00"
"18:54:57","86.8","73.5","64.8","29.83","190","3.3","9.6","0.00","0.00"
"18:59:56","86.5","73.6","65.5","29.83","145","3","7.2","0.00","0.00"
"19:04:56","86.4","73.2","64.9","29.83","174","3.3","7.2","0.00","0.00"
"19:09:56","86.2","73.3","65.5","29.83","166","2.1","5.8","0.00","0.00"
"19:14:57","86","73.2","65.8","29.83","168","2.5","8.4","0.00","0.00"
"19:19:57","85.9","73","65.6","29.83","171","2.5","8.1","0.00","0.00"
"19:24:56","85.7","72.9","65.9","29.83","154","2.9","6","0.00","0.00"
"19:29:56","85.6","73.2","66.6","29.84","153","1.8","4.8","0.00","0.00"
"19:34:59","85.4","73.3","67.2","29.84","151","1.7","4.8","0.00","0.00"
"19:39:56","85.2","73.2","67.5","29.84","133","2.3","6","0.00","0.00"
"19:44:59","85","73.3","68","29.84","133","1.3","2.4","0.00","0.00"
"19:49:59","84.8","73.4","68.8","29.84","133","1.3","3.6","0.00","0.00"
"19:54:58","84.4","73.2","69.1","29.84","133","0.7","3.6","0.00","0.00"
"19:59:57","84.1","72.9","69.3","29.85","134","1.6","3.6","0.00","0.00"
"20:04:58","83.8","73","70","29.85","134","0.9","4.8","0.00","0.00"
"20:09:58","83.6","72.9","70.2","29.85","135","1.5","4.6","0.00","0.00"
"20:14:58","83.4","72.9","70.8","29.85","137","0.7","3.6","0.00","0.00"
"20:19:56","83.2","72.8","71","29.84","137","0.1","1.2","0.00","0.00"
"20:24:56","83","72.6","71.2","29.84","137","0.5","2.4","0.00","0.00"
"20:29:57","82.7","72.7","72","29.85","128","0","1.2","0.00","0.00"
"20:34:57","82.5","72.6","72","29.85","128","0.2","2.4","0.00","0.00"
"20:39:58","82.4","72.7","72.4","29.85","128","0.1","1.2","0.00","0.00"
"20:44:58","82.2","72.7","73","29.85","128","0","1.2","0.00","0.00"
"20:49:59","81.9","72.6","73.6","29.84","128","0","1.2","0.00","0.00"
"20:54:59","81.6","72.5","74","29.84","134","0","0","0.00","0.00"
"20:59:59","81.4","72.5","74.5","29.85","132","0.1","1.2","0.00","0.00"
"21:04:56","81.2","72.5","75","29.85","161","0","0","0.00","0.00"
"21:09:56","81.2","72.5","75.1","29.85","161","0","0","0.00","0.00"
"21:14:56","81","72.5","75.6","29.85","161","0","0","0.00","0.00"
"21:19:57","80.7","72.6","76.6","29.85","161","0","0","0.00","0.00"
"21:24:57","80.4","72.5","77","29.85","161","0","0","0.00","0.00"
"21:29:57","80.1","72.5","77.9","29.85","161","0","0","0.00","0.00"
"21:34:57","79.5","72.2","78.5","29.85","161","0.1","1.2","0.00","0.00"
"21:39:58","79","72.1","79.5","29.85","161","0","0","0.00","0.00"
"21:44:57","78.7","72.1","80.4","29.85","161","0","0","0.00","0.00"
"21:49:57","78.4","72.1","81","29.85","161","0","1.2","0.00","0.00"
"21:54:56","78.2","71.9","81.1","29.85","161","0","0","0.00","0.00"
"21:59:59","78","72.1","82","29.85","161","0","0","0.00","0.00"
"22:04:59","77.7","71.9","82.3","29.85","161","0","1.2","0.00","0.00"
"22:09:57","77.5","72.1","83.3","29.85","161","0","0","0.00","0.00"
"22:14:57","77.3","72.1","84","29.86","161","0","0","0.00","0.00"
"22:19:56","77.1","71.9","84","29.86","161","0","0","0.00","0.00"
"22:24:59","77","71.8","84.3","29.86","161","0","0","0.00","0.00"
"22:29:58","76.8","71.9","85","29.86","161","0","1.2","0.00","0.00"
"22:34:57","76.5","71.9","85.7","29.86","161","0","0","0.00","0.00"
"22:39:57","76.4","71.9","86","29.86","161","0","0","0.00","0.00"
"22:44:56","76.2","71.7","86","29.86","161","0","0","0.00","0.00"
"22:49:59","75.9","71.7","86.8","29.86","161","0","0","0.00","0.00"
"22:54:58","75.7","71.6","87","29.86","161","0","0","0.00","0.00"
"22:59:57","75.5","71.5","87.2","29.86","161","0","0","0.00","0.00"
"23:04:57","75.4","71.6","88","29.86","161","0.1","1.2","0.00","0.00"
"23:09:59","75.2","71.4","88","29.86","161","0.1","1.2","0.00","0.00"
"23:14:59","75","71.3","88.2","29.86","161","0","0","0.00","0.00"
"23:19:58","75.1","71.6","89","29.86","161","0.3","1.2","0.00","0.00"
"23:24:58","75.3","71.8","89","29.86","161","0.3","1.2","0.00","0.00"
"23:29:57","75.5","72","89","29.86","161","0.2","1.2","0.00","0.00"
"23:34:56","75.7","72.2","89","29.86","161","0","0","0.00","0.00"
"23:39:56","75.7","72.1","88.6","29.86","161","0","0","0.00","0.00"
"23:44:59","75.8","72.1","88.3","29.86","161","0","0","0.00","0.00"
"23:49:58","75.7","71.9","88","29.86","161","0","0","0.00","0.00"
"23:54:57","75.4","71.8","88.3","29.86","161","0","0","0.00","0.00"
